FENGYUN 1C DEB, 38799

Orbit data source: Space-Track

FENGYUN 1C DEB, 38799 is space debris in SSO originally from a launch on Mon, 10 May 1999 UTC launched from the Taiyaun Space Center, China (TSC). Fengyun 1C debris stems from the Chinese weather satellite Fengyun-1C, which was intentionally destroyed by a Chinese anti-satellite missile in 2007. This event dramatically increased the amount of space debris, with thousands of trackable fragments posing hazards to satellites and human spaceflight. The Fengyun 1C debris cloud has become a focal point in discussions about space sustainability and the need for international regulations to prevent the creation of new debris.

Loading next visibility...
Identifier
38799, 1999-025EUP
Orbit
SSO
Country
Flag of CNCN / PRC
Related business
Manufacturer
Unknown
Mission
Spacecraft
Bus & Motor
Unknown
Mass
Unknown
Launch date (UTC)
1999-05-10 (26 years ago)
Launch vehicle
Unknown
Launch site
Taiyaun Space Center, China (TSC)
Object type
Payload
Rocket body
Debris
Shape & HBR
Unknown shape, 0.1 m
Radar Cross Section
Small (<0.1 m²)

Expand to show TLE details & history
Last TLE update: 2 days ago

TLE from 2 days ago
0 FENGYUN 1C DEB
1 38799U 99025EUP 25294.47459364  .00009280  00000-0  21005-2 0  9994
2 38799  98.4104  10.1546 0167206 149.1300 211.9856 14.48062430632826
Epoch: 2025-10-21T11:23Z
TLE epoch observation values (Epoch: 2025-10-21T11:23:24.890Z)
Latitude
0.00005°
Longitude
169.13885°
Altitude
836.352 km
Speed
7.382 km/s
True Right ascension
00h 40m 37s
True Declination
0° 00' 00"
Sunlit
Object was in full shadow at epoch
Visualization orbit readout
Latitude
Unknown
Longitude
Unknown
Altitude
Unknown
Speed
Unknown
Apparent Right ascension
Unknown
Apparent Declination
Unknown
Sunlit
N/A
Visualization observer readout
Local Sidereal Time
08:06:16
Azimuth
Unknown
Elevation
Unknown
Doppler factor
Unknown
Orbital elements
Apogee altitude
847.927 km
Perigee altitude
610.252 km
Semi-major axis
7,107.227 km
Eccentricity
0.01672
Inclination
98.4104°
RAAN
10.1546°
Arg. of periapsis
149.13°
True anomaly
210.9884°
Mean anomaly
211.9856°
Eccentric anomaly
211.48525°
Mean motion
3.62237 °/min
Orbital period
99.38 mins
BSTAR
0.0021005

Documentation

Showing up to 5 results
|